Flag for U.S.A. Weather past 2 weeks in Spokane, Washington, U.S.A.

Now
38 °F

Overcast.


Feels Like: 35 °F
Forecast: 30 / 49 °F
Wind: 3 mph from Northeast

Location: Felts Field

Current Time: Feb 26, 2015 at 8:42:12 PM

Latest Report: Feb 26, 2015 at 7:53 PM


Visibility: 10 mi

Pressure: 29.99 "Hg

Humidity: 76%

Dew point: 31 °F

Location of SpokaneLocation

Historic Weather in Spokane — Graph

°F

Spokane temperature yesterday

Maximum temperature yesterday: 50 °F (at 2:53 PM)
Minimum temperature yesterday: 23 °F (at 6:53 AM)
Average temperature yesterday: 36 °F

Past Weeks' High & Low Weather Summary

 TemperatureHumidityPressure
High57 °F (Feb 12, 2:53 PM)97% (Feb 12, 9:53 PM)30.56 "Hg (Feb 12, 9:53 PM)
Low20 °F (Feb 22, 6:53 AM)23% (Feb 21, 3:53 PM)30.01 "Hg (Feb 26, 6:53 PM)
Average37 °F71%30.31 "Hg
* Reported Feb 11 6:53 PM — Feb 26 6:53 PM, Spokane, Weather by CustomWeather, © 2015

Note: Actual official high and low records may vary slightly from our data, if they occured in-between our weather recording intervals... More about our weather records

Advertising

Spokane weather history for previous 24 hours

 ConditionsComfort  
Time TempWeatherWind HumidityBarometerVisibility
6:53 PM
Thu, Feb 26
41 °FOvercast.No wind65%30.01 "Hg10 mi
5:53 PM42 °FOvercast.6 mph62%30.02 "Hg10 mi
4:53 PM43 °FOvercast.7 mph60%30.03 "Hg10 mi
3:53 PM46 °FOvercast.3 mph51%30.04 "Hg10 mi
2:53 PM46 °FBroken clouds.3 mph51%30.06 "Hg10 mi
1:53 PM45 °FOvercast.6 mph51%30.08 "Hg10 mi
12:53 PM44 °FCloudy.8 mph53%30.11 "Hg10 mi
11:53 AM44 °FMostly cloudy.5 mph49%30.13 "Hg10 mi
10:53 AM42 °FBroken clouds.7 mph55%30.16 "Hg10 mi
9:53 AM39 °FBroken clouds.6 mph62%30.17 "Hg10 mi
8:53 AM36 °FBroken clouds.3 mph70%30.18 "Hg10 mi
7:53 AM33 °FMostly cloudy.3 mph75%30.18 "Hg10 mi
6:58 AM31 °FMostly cloudy.5 mph82%30.14 "Hg10 mi
5:53 AM29 °FOvercast.No wind85%30.18 "Hg10 mi
4:53 AM30 °FClear.3 mph82%30.17 "Hg10 mi
3:53 AM31 °FClear.3 mph79%30.16 "Hg10 mi
2:53 AM32 °FClear.5 mph75%30.16 "Hg10 mi
1:53 AM32 °FClear.3 mph75%30.16 "Hg10 mi
12:53 AM32 °FClear.3 mph79%30.17 "Hg10 mi
11:53 PM
Wed, Feb 25
34 °FClear.5 mph76%30.18 "Hg10 mi
10:53 PM36 °FClear.5 mph67%30.18 "Hg10 mi
9:53 PM37 °FClear.3 mph62%30.19 "Hg10 mi
8:53 PM36 °FClear.3 mph73%30.21 "Hg10 mi
Weather by CustomWeather, © 2015

See weather overviewHow to use our weather pages